When you browse on this site, cookies collect data to enhance your experience and personalize the content and advertising you see.
Visit our Privacy Policy to learn more. By continuing to use the site, you agree to this use of cookies and data.
  • In Deutschland
  • Länderverzeichnis
  • Für 7 Tage
  • Wassertemperatur
  • Wetterkarte
  • Widgets
  • user-avatar
    Anmelden

    Stündliche Wetter Dakka

    Heute, 22 September, Sonntag

    Zeit Temperatur Niederschläge Wind Luftdruck Luftfeuchtigkeit
    00:00 +30°C° 0 mm 1 m/S 755 mmHg 75%
    01:00 +30°C° 0.5 mm 1 m/S 754 mmHg 76%
    02:00 +30°C° 0.5 mm 1 m/S 754 mmHg 78%
    03:00 +29°C° 0.5 mm 1 m/S 754 mmHg 79%
    04:00 +29°C° 0 mm 1 m/S 754 mmHg 81%
    05:00 +29°C° 0 mm 1 m/S 754 mmHg 81%
    06:00 +27°C° 0 mm 0 m/S 755 mmHg 82%
    07:00 +30°C° 0.1 mm 1 m/S 755 mmHg 80%
    08:00 +30°C° 0.1 mm 1 m/S 756 mmHg 77%
    09:00 +31°C° 0.1 mm 2 m/S 756 mmHg 74%
    10:00 +32°C° 0.1 mm 2 m/S 756 mmHg 71%
    11:00 +32°C° 0.1 mm 2 m/S 755 mmHg 68%
    12:00 +34°C° 0.1 mm 2 m/S 755 mmHg 65%
    13:00 +35°C° 0 mm 2 m/S 754 mmHg 63%
    14:00 +34°C° 0 mm 1 m/S 754 mmHg 62%
    15:00 +34°C° 0 mm 1 m/S 753 mmHg 60%
    16:00 +34°C° 0 mm 1 m/S 753 mmHg 62%
    17:00 +33°C° 0 mm 1 m/S 753 mmHg 65%
    18:00 +32°C° 0 mm 1 m/S 753 mmHg 67%
    19:00 +32°C° 0 mm 1 m/S 754 mmHg 69%
    20:00 +31°C° 0 mm 2 m/S 754 mmHg 71%
    21:00 +31°C° 0 mm 2 m/S 755 mmHg 72%
    22:00 +31°C° 0.4 mm 2 m/S 755 mmHg 74%
    23:00 +30°C° 0.4 mm 2 m/S 755 mmHg 77%

    Morgen, 23 September, Montag

    Zeit Temperatur Niederschläge Wind Luftdruck Luftfeuchtigkeit
    00:00 +30°C° 0.4 mm 1 m/S 755 mmHg 79%
    01:00 +30°C° 0.1 mm 1 m/S 755 mmHg 79%
    02:00 +29°C° 0.1 mm 1 m/S 755 mmHg 79%
    03:00 +29°C° 0.1 mm 1 m/S 755 mmHg 79%
    04:00 +29°C° 0.1 mm 1 m/S 755 mmHg 80%
    05:00 +29°C° 0.1 mm 1 m/S 756 mmHg 81%
    06:00 +29°C° 0.1 mm 1 m/S 756 mmHg 82%
    07:00 +30°C° 0.2 mm 2 m/S 756 mmHg 76%
    08:00 +31°C° 0.2 mm 2 m/S 757 mmHg 71%
    09:00 +34°C° 0.2 mm 2 m/S 757 mmHg 66%
    10:00 +35°C° 0.6 mm 2 m/S 757 mmHg 62%
    11:00 +35°C° 0.6 mm 3 m/S 757 mmHg 58%
    12:00 +36°C° 0.6 mm 3 m/S 756 mmHg 54%
    13:00 +35°C° 2.4 mm 3 m/S 756 mmHg 59%
    14:00 +34°C° 2.4 mm 4 m/S 755 mmHg 63%
    15:00 +33°C° 2.4 mm 4 m/S 755 mmHg 68%
    16:00 +32°C° 1.1 mm 4 m/S 755 mmHg 72%
    17:00 +30°C° 1.1 mm 3 m/S 755 mmHg 77%
    18:00 +29°C° 1.1 mm 2 m/S 756 mmHg 81%
    19:00 +28°C° 0.1 mm 3 m/S 756 mmHg 83%
    20:00 +28°C° 0.1 mm 3 m/S 757 mmHg 85%
    21:00 +27°C° 0.1 mm 4 m/S 757 mmHg 87%
    22:00 +27°C° 0 mm 4 m/S 757 mmHg 87%
    23:00 +27°C° 0 mm 4 m/S 757 mmHg 88%

    übermorgen, 24 September, Dienstag

    Zeit Temperatur Niederschläge Wind Luftdruck Luftfeuchtigkeit
    00:00 +27°C° 0 mm 3 m/S 757 mmHg 88%
    01:00 +27°C° 0 mm 3 m/S 757 mmHg 88%
    02:00 +26°C° 0 mm 3 m/S 757 mmHg 88%
    03:00 +26°C° 0 mm 3 m/S 756 mmHg 89%
    04:00 +26°C° 0 mm 3 m/S 756 mmHg 89%
    05:00 +26°C° 0 mm 3 m/S 757 mmHg 89%
    06:00 +26°C° 0 mm 3 m/S 757 mmHg 89%
    07:00 +27°C° 0 mm 4 m/S 757 mmHg 84%
    08:00 +29°C° 0 mm 4 m/S 758 mmHg 80%
    09:00 +30°C° 0 mm 4 m/S 758 mmHg 75%
    10:00 +30°C° 0.1 mm 4 m/S 758 mmHg 74%
    11:00 +31°C° 0.1 mm 3 m/S 758 mmHg 72%
    12:00 +31°C° 0.1 mm 3 m/S 757 mmHg 71%
    13:00 +31°C° 0.2 mm 3 m/S 757 mmHg 71%
    14:00 +31°C° 0.2 mm 3 m/S 756 mmHg 70%
    15:00 +31°C° 0.2 mm 3 m/S 756 mmHg 69%
    16:00 +31°C° 0.4 mm 3 m/S 756 mmHg 72%
    17:00 +30°C° 0.4 mm 3 m/S 756 mmHg 76%
    18:00 +29°C° 0.4 mm 3 m/S 756 mmHg 79%
    19:00 +29°C° 0.4 mm 3 m/S 757 mmHg 80%
    20:00 +28°C° 0.4 mm 3 m/S 758 mmHg 82%
    21:00 +28°C° 0.4 mm 3 m/S 759 mmHg 84%
    22:00 +28°C° 1.3 mm 2 m/S 759 mmHg 86%
    23:00 +27°C° 1.3 mm 2 m/S 759 mmHg 88%

    25 September, Mittwoch

    Zeit Temperatur Niederschläge Wind Luftdruck Luftfeuchtigkeit
    00:00 +27°C° 1.3 mm 1 m/S 758 mmHg 91%
    01:00 +27°C° 1.3 mm 2 m/S 758 mmHg 91%
    02:00 +26°C° 1.3 mm 2 m/S 758 mmHg 92%
    03:00 +26°C° 1.3 mm 3 m/S 758 mmHg 92%
    04:00 +26°C° 0.3 mm 4 m/S 758 mmHg 92%
    05:00 +26°C° 0.3 mm 4 m/S 758 mmHg 91%
    06:00 +26°C° 0.3 mm 4 m/S 758 mmHg 91%
    07:00 +26°C° 0.1 mm 4 m/S 759 mmHg 90%
    08:00 +26°C° 0.1 mm 4 m/S 760 mmHg 89%
    09:00 +27°C° 0.1 mm 4 m/S 760 mmHg 89%
    10:00 +27°C° 0.9 mm 4 m/S 760 mmHg 89%
    11:00 +27°C° 0.9 mm 4 m/S 760 mmHg 89%
    12:00 +27°C° 0.9 mm 4 m/S 760 mmHg 89%
    13:00 +27°C° 1.4 mm 4 m/S 759 mmHg 90%
    14:00 +26°C° 1.4 mm 4 m/S 759 mmHg 91%
    15:00 +26°C° 1.4 mm 4 m/S 758 mmHg 92%
    16:00 +26°C° 1.5 mm 3 m/S 759 mmHg 93%
    17:00 +26°C° 1.5 mm 3 m/S 759 mmHg 93%
    18:00 +26°C° 1.5 mm 3 m/S 759 mmHg 93%
    19:00 +26°C° 0.3 mm 3 m/S 759 mmHg 93%
    20:00 +26°C° 0.3 mm 2 m/S 760 mmHg 93%
    21:00 +26°C° 0.3 mm 2 m/S 761 mmHg 94%
    22:00 +26°C° 0.1 mm 2 m/S 761 mmHg 94%
    23:00 +25°C° 0.1 mm 2 m/S 761 mmHg 94%

    26 September, Donnerstag

    Zeit Temperatur Niederschläge Wind Luftdruck Luftfeuchtigkeit
    00:00 +25°C° 0.1 mm 3 m/S 761 mmHg 94%
    01:00 +25°C° 0 mm 2 m/S 760 mmHg 93%
    02:00 +25°C° 0 mm 2 m/S 760 mmHg 93%
    03:00 +25°C° 0 mm 2 m/S 760 mmHg 93%
    04:00 +25°C° 0 mm 2 m/S 760 mmHg 93%
    05:00 +25°C° 0 mm 1 m/S 760 mmHg 92%
    06:00 +25°C° 0 mm 1 m/S 760 mmHg 92%
    07:00 +27°C° 0 mm 1 m/S 760 mmHg 87%
    08:00 +28°C° 0 mm 1 m/S 760 mmHg 82%
    09:00 +29°C° 0 mm 1 m/S 761 mmHg 77%
    10:00 +30°C° 0.2 mm 1 m/S 760 mmHg 73%
    11:00 +31°C° 0.2 mm 1 m/S 760 mmHg 70%
    12:00 +30°C° 0.2 mm 0 m/S 759 mmHg 66%
    13:00 +32°C° 0.8 mm 1 m/S 758 mmHg 66%
    14:00 +32°C° 0.8 mm 1 m/S 758 mmHg 65%
    15:00 +32°C° 0.8 mm 1 m/S 757 mmHg 65%
    16:00 +31°C° 0.7 mm 2 m/S 757 mmHg 70%
    17:00 +30°C° 0.7 mm 2 m/S 757 mmHg 75%
    18:00 +29°C° 0.7 mm 3 m/S 757 mmHg 80%
    19:00 +29°C° 0.1 mm 2 m/S 758 mmHg 81%
    20:00 +28°C° 0.1 mm 2 m/S 758 mmHg 83%
    21:00 +28°C° 0.1 mm 2 m/S 759 mmHg 85%
    22:00 +28°C° 0.1 mm 2 m/S 759 mmHg 85%
    23:00 +27°C° 0.1 mm 2 m/S 759 mmHg 86%

    27 September, Freitag

    Zeit Temperatur Niederschläge Wind Luftdruck Luftfeuchtigkeit
    00:00 +27°C° 0.1 mm 1 m/S 759 mmHg 86%
    01:00 +27°C° 0 mm 1 m/S 759 mmHg 87%
    02:00 +27°C° 0 mm 1 m/S 758 mmHg 87%
    03:00 +27°C° 0 mm 1 m/S 758 mmHg 88%
    04:00 +27°C° 0 mm 1 m/S 758 mmHg 89%
    05:00 +26°C° 0 mm 1 m/S 758 mmHg 89%
    06:00 +26°C° 0 mm 1 m/S 758 mmHg 90%
    07:00 +28°C° 0 mm 1 m/S 758 mmHg 84%
    08:00 +29°C° 0 mm 2 m/S 758 mmHg 78%
    09:00 +30°C° 0 mm 2 m/S 759 mmHg 72%
    10:00 +31°C° 0 mm 2 m/S 758 mmHg 68%
    11:00 +32°C° 0 mm 2 m/S 757 mmHg 64%
    12:00 +34°C° 0 mm 2 m/S 757 mmHg 60%
    13:00 +34°C° 0 mm 2 m/S 756 mmHg 59%
    14:00 +35°C° 0 mm 2 m/S 755 mmHg 58%
    15:00 +35°C° 0 mm 2 m/S 753 mmHg 57%
    16:00 +33°C° 0.3 mm 1 m/S 754 mmHg 62%
    17:00 +32°C° 0.3 mm 1 m/S 754 mmHg 67%
    18:00 +31°C° 0.3 mm 1 m/S 754 mmHg 71%
    19:00 +30°C° 0.2 mm 1 m/S 754 mmHg 73%
    20:00 +30°C° 0.2 mm 1 m/S 755 mmHg 76%
    21:00 +29°C° 0.2 mm 2 m/S 755 mmHg 78%
    22:00 +29°C° 0.1 mm 2 m/S 755 mmHg 79%
    23:00 +29°C° 0.1 mm 2 m/S 755 mmHg 80%
    Mehr zeigen